Location: São Paulo
(23.5507°S, 46.6334°W)
Time: 17:53:48
(UTC-03:00)

Tiros 1 - Pass Details

Date: 12 February 2026
Orbit: 618 x 649 km, 48.4° (Epoch: 8 March)

Event Time Altitude Azimuth Distance (km) Brightness Sun altitude
Rises 21:55:47 0° 290° (WNW) 2,928 - -38.8°
Reaches altitude 10° 21:58:22 10° 278° (W) 2,030 - -39.2°
Maximum altitude 22:02:23 28° 219° (SW) 1,216 - -39.9°
Drops below altitude 10° 22:06:29 10° 160° (SSE) 2,059 - -40.6°
Sets 22:09:07 0° 148° (SSE) 2,977 - -41.0°
